| time (UTC) | temp F | wind direction | speed MPH | gust MPH | rain 1hr in | rain 24hr in | rain mn in | humidity % | barometer mb |
| 20260503184542 | 60 | 299 | 7.0 | 18.0 | 0.00 | 0.00 | 0.00 | 42 | 1016.6 |
| 20260503183048 | 59 | 290 | 7.0 | 16.0 | 0.00 | 0.00 | 0.00 | 42 | 1016.7 |
| 20260503181559 | 59 | 224 | 4.0 | 18.0 | 0.00 | 0.00 | 0.00 | 44 | 1016.7 |
| 20260503180046 | 59 | 279 | 6.0 | 16.0 | 0.00 | 0.00 | 0.00 | 42 | 1016.8 |
| 20260503174545 | 59 | 301 | 6.0 | 16.0 | 0.00 | 0.00 | 0.00 | 42 | 1016.8 |
| 20260503173056 | 58 | 277 | 9.0 | 16.0 | 0.00 | 0.00 | 0.00 | 44 | 1017.0 |
| 20260503171546 | 57 | 313 | 8.0 | 19.0 | 0.00 | 0.00 | 0.00 | 45 | 1017.1 |
| 20260503081549 | 53 | 281 | 7.0 | 13.0 | 0.00 | 0.02 | 0.00 | 63 | 1013.2 |
| 20260503071549 | 50 | 264 | 3.0 | 6.0 | 0.00 | 0.02 | 0.00 | 76 | 1012.6 |
| 20260503054547 | 51 | 262 | 3.0 | 6.0 | 0.00 | 0.02 | 0.00 | 71 | 1012.0 |
| 20260503053046 | 53 | 274 | 1.0 | 4.0 | 0.00 | 0.02 | 0.00 | 68 | 1012.1 |
| 20260503051545 | 54 | 261 | 2.0 | 7.0 | 0.00 | 0.02 | 0.00 | 64 | 1012.3 |
| 20260503050045 | 55 | 275 | 5.0 | 9.0 | 0.00 | 0.02 | 0.00 | 60 | 1012.2 |
| 20260503044541 | 55 | 265 | 4.0 | 11.0 | 0.00 | 0.02 | 0.00 | 60 | 1012.2 |
| 20260503043049 | 55 | 305 | 3.0 | 8.0 | 0.00 | 0.02 | 0.00 | 61 | 1012.3 |
| 20260503041546 | 55 | 268 | 3.0 | 7.0 | 0.00 | 0.02 | 0.00 | 62 | 1012.2 |
| 20260503040047 | 55 | 313 | 2.0 | 7.0 | 0.00 | 0.02 | 0.00 | 62 | 1012.2 |
| 20260503034541 | 55 | 295 | 3.0 | 9.0 | 0.00 | 0.02 | 0.02 | 63 | 1012.3 |
| 20260503033053 | 55 | 257 | 2.0 | 6.0 | 0.00 | 0.02 | 0.02 | 64 | 1012.3 |
| 20260503031543 | 55 | 306 | 1.0 | 6.0 | 0.00 | 0.02 | 0.02 | 64 | 1012.1 |
| 20260503030047 | 56 | 284 | 2.0 | 6.0 | 0.00 | 0.02 | 0.02 | 63 | 1012.0 |
| 20260503024546 | 56 | 266 | 3.0 | 9.0 | 0.00 | 0.02 | 0.02 | 61 | 1012.3 |
| 20260503023055 | 56 | 284 | 3.0 | 7.0 | 0.00 | 0.02 | 0.02 | 61 | 1012.2 |
| 20260503021548 | 56 | 280 | 3.0 | 9.0 | 0.00 | 0.02 | 0.02 | 60 | 1012.3 |
| 20260503020046 | 56 | 302 | 2.0 | 8.0 | 0.00 | 0.02 | 0.02 | 60 | 1012.2 |
| 20260503014549 | 55 | 265 | 3.0 | 7.0 | 0.00 | 0.02 | 0.02 | 60 | 1012.2 |
| 20260503013046 | 56 | 277 | 2.0 | 7.0 | 0.00 | 0.02 | 0.02 | 59 | 1012.0 |
| 20260503011554 | 56 | 312 | 3.0 | 7.0 | 0.00 | 0.02 | 0.02 | 58 | 1011.7 |
| 20260503010051 | 56 | 288 | 2.0 | 7.0 | 0.00 | 0.02 | 0.02 | 59 | 1011.8 |
| 20260503004544 | 56 | 280 | 3.0 | 10.0 | 0.00 | 0.02 | 0.02 | 59 | 1011.7 |
| 20260503003058 | 56 | 316 | 2.0 | 10.0 | 0.00 | 0.02 | 0.02 | 59 | 1011.5 |
| 20260503001601 | 56 | 273 | 3.0 | 10.0 | 0.00 | 0.02 | 0.02 | 58 | 1011.4 |
| 20260503000111 | 56 | 324 | 5.0 | 12.0 | 0.00 | 0.02 | 0.02 | 55 | 1011.2 |
| 20260502234545 | 56 | 330 | 5.0 | 12.0 | 0.00 | 0.02 | 0.02 | 50 | 1011.1 |
| 20260502233050 | 56 | 349 | 3.0 | 9.0 | 0.00 | 0.02 | 0.02 | 49 | 1010.9 |
| 20260502231546 | 56 | 244 | 2.0 | 12.0 | 0.00 | 0.02 | 0.02 | 49 | 1010.7 |
| 20260502230044 | 56 | 279 | 5.0 | 13.0 | 0.00 | 0.02 | 0.02 | 50 | 1010.8 |
| 20260502224542 | 56 | 333 | 3.0 | 9.0 | 0.00 | 0.02 | 0.02 | 58 | 1010.8 |
| 20260502223040 | 56 | 252 | 3.0 | 11.0 | 0.00 | 0.02 | 0.02 | 59 | 1011.0 |
| 20260502221543 | 56 | 346 | 3.0 | 13.0 | 0.00 | 0.02 | 0.02 | 60 | 1010.9 |
| 20260502220047 | 56 | 339 | 4.0 | 12.0 | 0.00 | 0.02 | 0.02 | 57 | 1010.9 |
| 20260502214543 | 56 | 340 | 7.0 | 15.0 | 0.00 | 0.02 | 0.02 | 55 | 1010.8 |
| 20260502213047 | 57 | 279 | 7.0 | 14.0 | 0.00 | 0.02 | 0.02 | 61 | 1010.8 |
| 20260502211550 | 57 | 288 | 5.0 | 16.0 | 0.00 | 0.02 | 0.02 | 63 | 1010.6 |
| 20260502210043 | 57 | 306 | 6.0 | 12.0 | 0.00 | 0.02 | 0.02 | 63 | 1010.7 |
| 20260502204546 | 57 | 281 | 4.0 | 11.0 | 0.00 | 0.02 | 0.02 | 62 | 1010.6 |
| 20260502203107 | 57 | 261 | 5.0 | 13.0 | 0.00 | 0.02 | 0.02 | 61 | 1010.7 |
| 20260502201550 | 57 | 267 | 6.0 | 15.0 | 0.00 | 0.02 | 0.02 | 61 | 1010.7 |
| 20260502200045 | 58 | 254 | 8.0 | 16.0 | 0.00 | 0.02 | 0.02 | 60 | 1010.8 |
| 20260502194546 | 58 | 313 | 2.0 | 11.0 | 0.00 | 0.02 | 0.02 | 61 | 1010.8 |
| 20260502193047 | 57 | 336 | 3.0 | 8.0 | 0.00 | 0.02 | 0.02 | 64 | 1011.2 |
| 20260502191555 | 56 | 331 | 4.0 | 12.0 | 0.00 | 0.02 | 0.02 | 59 | 1010.9 |
| 20260502190044 | 56 | 294 | 2.0 | 11.0 | 0.00 | 0.02 | 0.02 | 65 | 1011.0 |